FDB855 OMDB-OERK

Flight info

Callsign FDB855
Flight time 1h 8m
Altitude 34000
Route ANVIX R401 GIDIS G783 RIGIL M628 PEKEM/N0466F280 M628 AMBAG M321 NAGUB
Aircraft B738/M-SDE2E3FGHIRWXY/LB1

Departure

Time 2026-04-23 17:05
Airport Dubai International Airport (OMDB)

Arrival

Time 2026-04-23 18:13
Airport King Khalid International Airport (OERK)
Time Latitude Longitude Altitude Speed Heading
2026-04-23 16:24 25.26445 55.35824 20 ft 0 kts 31°
2026-04-23 16:26 25.26445 55.35823 20 ft 0 kts 31°
2026-04-23 16:32 25.26444 55.35823 20 ft 0 kts 31°
2026-04-23 16:51 25.26440 55.35821 20 ft 4 kts 31°
2026-04-23 16:52 25.26417 55.35805 21 ft 4 kts 31°
2026-04-23 16:52 25.26397 55.35792 24 ft 2 kts 31°
2026-04-23 16:52 25.26381 55.35776 23 ft 4 kts 77°
2026-04-23 16:52 25.26384 55.35752 23 ft 4 kts 122°
2026-04-23 16:53 25.26394 55.35734 22 ft 0 kts 122°
2026-04-23 16:57 25.26392 55.35735 20 ft 0 kts 140°
2026-04-23 16:58 25.26388 55.35733 22 ft 1 kts 198°
2026-04-23 16:58 25.26380 55.35717 22 ft 5 kts 238°
2026-04-23 16:58 25.26335 55.35697 21 ft 10 kts 167°
2026-04-23 16:58 25.26280 55.35766 21 ft 15 kts 124°
2026-04-23 16:59 25.26215 55.35877 21 ft 19 kts 121°
2026-04-23 16:59 25.26137 55.36020 21 ft 24 kts 122°
2026-04-23 16:59 25.26041 55.36189 24 ft 28 kts 122°
2026-04-23 16:59 25.25933 55.36382 22 ft 31 kts 121°
2026-04-23 17:00 25.25814 55.36595 22 ft 33 kts 122°
2026-04-23 17:00 25.25706 55.36785 23 ft 31 kts 122°
2026-04-23 17:00 25.25588 55.36997 21 ft 34 kts 122°
2026-04-23 17:00 25.25469 55.37206 21 ft 28 kts 122°
2026-04-23 17:01 25.25363 55.37397 23 ft 31 kts 121°
2026-04-23 17:01 25.25245 55.37609 23 ft 34 kts 122°
2026-04-23 17:01 25.25109 55.37845 21 ft 37 kts 121°
2026-04-23 17:01 25.24999 55.38043 22 ft 32 kts 122°
2026-04-23 17:02 25.24969 55.38096 21 ft 0 kts 124°
2026-04-23 17:02 25.24961 55.38105 21 ft 4 kts 133°
2026-04-23 17:02 25.24920 55.38121 21 ft 9 kts 182°
2026-04-23 17:02 25.24900 55.38113 22 ft 0 kts 206°
2026-04-23 17:03 25.24899 55.38112 22 ft 1 kts 209°
2026-04-23 17:03 25.24883 55.38102 22 ft 4 kts 210°
2026-04-23 17:04 25.24851 55.38081 24 ft 7 kts 213°
2026-04-23 17:04 25.24825 55.38009 24 ft 16 kts 276°
2026-04-23 17:04 25.24919 55.37819 25 ft 59 kts 301°
2026-04-23 17:04 25.25280 55.37172 27 ft 138 kts 301°
2026-04-23 17:05 25.25908 55.36130 176 ft 188 kts 305°
2026-04-23 17:05 25.26641 55.34918 975 ft 196 kts 306°
2026-04-23 17:05 25.27398 55.33545 1290 ft 225 kts 303°
2026-04-23 17:05 25.28234 55.31979 1528 ft 252 kts 302°
2026-04-23 17:06 25.28982 55.30162 2195 ft 262 kts 284°
2026-04-23 17:06 25.28945 55.28215 3231 ft 246 kts 260°
2026-04-23 17:06 25.28370 55.26461 3750 ft 242 kts 247°
2026-04-23 17:06 25.27642 55.24789 4011 ft 245 kts 246°
2026-04-23 17:07 25.26908 55.23126 4023 ft 250 kts 246°
2026-04-23 17:07 25.26153 55.21399 4020 ft 247 kts 246°
2026-04-23 17:07 25.25414 55.19692 4018 ft 245 kts 247°
2026-04-23 17:07 25.24625 55.18033 4010 ft 246 kts 235°
2026-04-23 17:08 25.23266 55.16968 4372 ft 237 kts 198°
2026-04-23 17:08 25.21661 55.16699 4994 ft 233 kts 179°
2026-04-23 17:08 25.20088 55.16821 5609 ft 227 kts 176°
2026-04-23 17:08 25.18623 55.17413 6183 ft 228 kts 143°
2026-04-23 17:09 25.17653 55.18765 6791 ft 223 kts 123°
2026-04-23 17:09 25.16922 55.20273 7274 ft 225 kts 121°
2026-04-23 17:09 25.16172 55.21878 7435 ft 241 kts 120°
2026-04-23 17:09 25.15402 55.23515 7895 ft 242 kts 121°
2026-04-23 17:10 25.14639 55.25120 8321 ft 244 kts 121°
2026-04-23 17:10 25.13842 55.26786 8762 ft 247 kts 121°
2026-04-23 17:10 25.13036 55.28472 9217 ft 249 kts 121°
2026-04-23 17:10 25.12219 55.30171 9672 ft 252 kts 121°
2026-04-23 17:11 25.11405 55.31863 10063 ft 254 kts 121°
2026-04-23 17:11 25.10575 55.33611 10485 ft 256 kts 119°
2026-04-23 17:11 25.09828 55.35403 10915 ft 259 kts 118°
2026-04-23 17:11 25.09099 55.37200 11361 ft 261 kts 118°
2026-04-23 17:12 25.08350 55.39036 11791 ft 263 kts 118°
2026-04-23 17:12 25.07594 55.40879 12240 ft 264 kts 118°
2026-04-23 17:12 25.06839 55.42759 12566 ft 273 kts 117°
2026-04-23 17:12 25.06092 55.44701 12910 ft 279 kts 117°
2026-04-23 17:13 25.05331 55.46693 13288 ft 283 kts 117°
2026-04-23 17:13 25.04568 55.48691 13665 ft 283 kts 117°
2026-04-23 17:13 25.03795 55.50702 13999 ft 284 kts 117°
2026-04-23 17:13 25.02937 55.52663 14315 ft 281 kts 130°
2026-04-23 17:14 25.01432 55.54013 14321 ft 283 kts 165°
2026-04-23 17:14 24.99471 55.54325 14473 ft 294 kts 180°
2026-04-23 17:14 24.97342 55.54451 14614 ft 316 kts 179°
2026-04-23 17:14 24.95076 55.54612 14769 ft 337 kts 179°
2026-04-23 17:15 24.92670 55.54798 14907 ft 356 kts 178°
2026-04-23 17:15 24.90136 55.55005 15032 ft 374 kts 178°
2026-04-23 17:15 24.87479 55.55229 15142 ft 391 kts 178°
2026-04-23 17:15 24.84718 55.55467 15260 ft 405 kts 178°
2026-04-23 17:16 24.81884 55.55715 15532 ft 413 kts 178°
2026-04-23 17:16 24.79038 55.55967 15944 ft 416 kts 178°
2026-04-23 17:16 24.76263 55.56212 16344 ft 419 kts 178°
2026-04-23 17:16 24.73342 55.56470 16745 ft 423 kts 178°
2026-04-23 17:17 24.70388 55.56729 17145 ft 427 kts 178°
2026-04-23 17:17 24.67410 55.56990 17534 ft 431 kts 178°
2026-04-23 17:17 24.65423 55.57164 17784 ft 433 kts 178°
2026-04-23 17:17 24.61383 55.57517 18259 ft 438 kts 178°
2026-04-23 17:18 24.55265 55.58051 18990 ft 443 kts 178°
2026-04-23 17:18 24.52190 55.58319 19350 ft 444 kts 178°
2026-04-23 17:18 24.49104 55.58589 19714 ft 446 kts 178°
2026-04-23 17:19 24.45992 55.58860 20035 ft 449 kts 178°
2026-04-23 17:19 24.42864 55.59132 20373 ft 451 kts 178°
2026-04-23 17:19 24.39731 55.59405 20708 ft 453 kts 178°
2026-04-23 17:19 24.36581 55.59679 21026 ft 455 kts 178°
2026-04-23 17:20 24.33415 55.59955 21348 ft 457 kts 178°
2026-04-23 17:20 24.27047 55.60396 21933 ft 459 kts 185°
2026-04-23 17:21 24.20802 55.59187 22541 ft 456 kts 199°
2026-04-23 17:21 24.17789 55.58239 22825 ft 457 kts 199°
2026-04-23 17:21 24.11623 55.56343 23340 ft 462 kts 198°
2026-04-23 17:22 24.08511 55.55415 23577 ft 463 kts 198°
2026-04-23 17:22 24.02259 55.53571 23982 ft 467 kts 198°
2026-04-23 17:23 23.95956 55.51703 24370 ft 470 kts 198°
2026-04-23 17:23 23.92797 55.50761 24547 ft 472 kts 199°
2026-04-23 17:23 23.86483 55.48881 24935 ft 475 kts 199°
2026-04-23 17:24 23.83271 55.47926 25121 ft 477 kts 199°
2026-04-23 17:24 23.80064 55.46971 25307 ft 478 kts 199°
2026-04-23 17:24 23.73983 55.44251 25673 ft 470 kts 219°
2026-04-23 17:25 23.69516 55.39183 26091 ft 463 kts 238°
2026-04-23 17:25 23.67705 55.36273 26271 ft 464 kts 238°
2026-04-23 17:26 23.64037 55.30496 26842 ft 462 kts 238°
2026-04-23 17:26 23.60343 55.24778 27500 ft 459 kts 238°
2026-04-23 17:27 23.56663 55.19116 28145 ft 457 kts 238°
2026-04-23 17:27 23.54826 55.16295 28481 ft 456 kts 238°
2026-04-23 17:27 23.53612 55.14430 28706 ft 455 kts 238°
2026-04-23 17:27 23.51167 55.10676 29168 ft 453 kts 238°
2026-04-23 17:28 23.49364 55.07908 29517 ft 452 kts 239°
2026-04-23 17:28 23.47545 55.05116 29877 ft 451 kts 239°
2026-04-23 17:28 23.45741 55.02349 30187 ft 450 kts 239°
2026-04-23 17:28 23.44517 55.00472 30376 ft 449 kts 239°
2026-04-23 17:29 23.42709 54.97702 30652 ft 449 kts 239°
2026-04-23 17:29 23.40903 54.94935 30950 ft 448 kts 239°
2026-04-23 17:29 23.37294 54.89412 31492 ft 447 kts 239°
2026-04-23 17:30 23.35488 54.86650 31785 ft 447 kts 239°
2026-04-23 17:30 23.31909 54.81182 32378 ft 446 kts 239°
2026-04-23 17:30 23.30113 54.78440 32655 ft 445 kts 239°
2026-04-23 17:31 23.28318 54.75702 32937 ft 445 kts 239°
2026-04-23 17:31 23.26523 54.72964 33217 ft 444 kts 239°
2026-04-23 17:31 23.24732 54.70236 33560 ft 442 kts 239°
2026-04-23 17:31 23.22944 54.67512 33834 ft 442 kts 239°
2026-04-23 17:32 23.19346 54.62030 33823 ft 446 kts 239°
2026-04-23 17:32 23.15754 54.56571 33814 ft 441 kts 239°
2026-04-23 17:33 23.12199 54.51174 33830 ft 439 kts 239°
2026-04-23 17:33 23.08642 54.45775 33828 ft 438 kts 239°
2026-04-23 17:34 23.05119 54.40433 33828 ft 437 kts 239°
2026-04-23 17:35 22.99798 54.32377 33828 ft 437 kts 239°
2026-04-23 17:35 22.94469 54.24321 33817 ft 439 kts 239°
2026-04-23 17:36 22.90907 54.18944 33830 ft 439 kts 239°
2026-04-23 17:36 22.87332 54.13551 33834 ft 440 kts 239°
2026-04-23 17:37 22.83757 54.08163 33832 ft 442 kts 239°
2026-04-23 17:38 22.79033 53.99700 33841 ft 432 kts 256°
2026-04-23 17:38 22.78100 53.93342 33824 ft 426 kts 273°
2026-04-23 17:39 22.78987 53.69690 33815 ft 426 kts 274°
2026-04-23 17:39 22.79778 53.44196 33834 ft 426 kts 273°
2026-04-23 17:40 22.80542 53.18539 33833 ft 426 kts 273°
2026-04-23 17:40 22.81262 52.92888 33860 ft 425 kts 272°
2026-04-23 17:41 22.81942 52.67240 33847 ft 425 kts 272°
2026-04-23 17:41 22.82707 52.34749 33858 ft 427 kts 272°
2026-04-23 17:42 22.83458 51.96313 33862 ft 425 kts 272°
2026-04-23 17:43 22.83907 51.70778 33862 ft 423 kts 272°
2026-04-23 17:43 22.84291 51.47072 33866 ft 422 kts 272°
2026-04-23 17:44 22.85661 51.26666 33864 ft 422 kts 275°
2026-04-23 17:44 22.87818 50.94675 33876 ft 422 kts 274°
2026-04-23 17:45 22.90310 50.56578 33897 ft 421 kts 274°
2026-04-23 17:46 22.92698 50.18688 33881 ft 419 kts 273°
2026-04-23 17:46 22.94235 49.93507 33885 ft 419 kts 273°
2026-04-23 17:47 22.95725 49.68430 33887 ft 418 kts 273°
2026-04-23 17:48 22.97892 49.30712 33888 ft 417 kts 272°
2026-04-23 17:48 22.99288 49.05545 33888 ft 418 kts 272°
2026-04-23 17:49 23.00646 48.86387 33896 ft 418 kts 274°
2026-04-23 17:49 23.02694 48.61191 33901 ft 419 kts 274°
2026-04-23 17:50 23.04646 48.36134 33899 ft 419 kts 273°
2026-04-23 17:50 23.07522 47.98292 33928 ft 419 kts 273°
2026-04-23 17:51 23.08946 47.81258 33891 ft 418 kts 284°
2026-04-23 17:51 23.11818 47.75721 33932 ft 430 kts 306°
2026-04-23 17:52 23.14050 47.73509 33926 ft 440 kts 319°
2026-04-23 17:52 23.21944 47.68208 33942 ft 445 kts 322°
2026-04-23 17:53 23.27232 47.64715 33533 ft 446 kts 322°
2026-04-23 17:53 23.29865 47.62942 33102 ft 444 kts 322°
2026-04-23 17:53 23.32461 47.61184 32654 ft 440 kts 322°
2026-04-23 17:54 23.35061 47.59416 31941 ft 441 kts 322°
2026-04-23 17:54 23.37632 47.57665 31213 ft 442 kts 322°
2026-04-23 17:54 23.42826 47.54135 30282 ft 432 kts 323°
2026-04-23 17:55 23.47872 47.50838 29620 ft 419 kts 328°
2026-04-23 17:55 23.50532 47.49425 29151 ft 434 kts 329°
2026-04-23 17:55 23.53324 47.48015 28631 ft 447 kts 330°
2026-04-23 17:56 23.56258 47.46844 28118 ft 454 kts 344°
2026-04-23 17:56 23.62408 47.45406 27075 ft 442 kts 332°
2026-04-23 17:56 23.65060 47.43818 26661 ft 432 kts 325°
2026-04-23 17:57 23.67581 47.42052 26180 ft 429 kts 324°
2026-04-23 17:57 23.70113 47.40321 25681 ft 429 kts 326°
2026-04-23 17:57 23.75330 47.37160 24707 ft 429 kts 330°
2026-04-23 17:58 23.77971 47.35716 24212 ft 429 kts 331°
2026-04-23 17:58 23.80695 47.34283 23718 ft 428 kts 332°
2026-04-23 17:58 23.83385 47.32893 23179 ft 427 kts 332°
2026-04-23 17:58 23.86010 47.31520 22676 ft 422 kts 327°
2026-04-23 17:59 23.88506 47.29870 22188 ft 416 kts 324°
2026-04-23 17:59 23.91016 47.28301 21704 ft 416 kts 329°
2026-04-23 17:59 23.93638 47.26981 21245 ft 414 kts 332°
2026-04-23 17:59 23.96286 47.25763 20769 ft 411 kts 333°
2026-04-23 18:00 23.98914 47.24550 20311 ft 408 kts 332°
2026-04-23 18:00 24.01508 47.23311 19855 ft 405 kts 332°
2026-04-23 18:00 24.04069 47.22046 19405 ft 402 kts 331°
2026-04-23 18:00 24.06612 47.20772 18939 ft 402 kts 334°
2026-04-23 18:01 24.09239 47.19725 18475 ft 402 kts 338°
2026-04-23 18:01 24.11834 47.18630 17972 ft 397 kts 333°
2026-04-23 18:01 24.14302 47.17312 17512 ft 392 kts 328°
2026-04-23 18:01 24.16581 47.15787 17076 ft 387 kts 322°
2026-04-23 18:02 24.18112 47.14717 16769 ft 387 kts 325°
2026-04-23 18:02 24.21278 47.12915 16210 ft 388 kts 331°
2026-04-23 18:02 24.23753 47.11709 15756 ft 388 kts 332°
2026-04-23 18:02 24.26226 47.10518 15314 ft 388 kts 332°
2026-04-23 18:03 24.28683 47.09304 14881 ft 387 kts 331°
2026-04-23 18:03 24.31118 47.08071 14429 ft 382 kts 331°
2026-04-23 18:03 24.33502 47.06842 14007 ft 378 kts 331°
2026-04-23 18:03 24.35887 47.05603 13529 ft 380 kts 331°
2026-04-23 18:04 24.38271 47.04362 12775 ft 380 kts 331°
2026-04-23 18:04 24.40648 47.03080 11895 ft 379 kts 328°
2026-04-23 18:04 24.42931 47.01655 11038 ft 375 kts 326°
2026-04-23 18:04 24.45170 47.00207 10220 ft 373 kts 326°
2026-04-23 18:05 24.47381 46.98794 9351 ft 371 kts 327°
2026-04-23 18:05 24.49607 46.97394 9001 ft 355 kts 327°
2026-04-23 18:05 24.51673 46.96100 8731 ft 338 kts 327°
2026-04-23 18:05 24.53675 46.94847 8469 ft 324 kts 327°
2026-04-23 18:06 24.55590 46.93645 8209 ft 311 kts 327°
2026-04-23 18:06 24.57432 46.92489 7955 ft 300 kts 327°
2026-04-23 18:06 24.59219 46.91368 7704 ft 290 kts 327°
2026-04-23 18:06 24.60948 46.90281 7465 ft 282 kts 328°
2026-04-23 18:07 24.62639 46.89217 7228 ft 279 kts 328°
2026-04-23 18:07 24.64317 46.88162 7081 ft 277 kts 328°
2026-04-23 18:07 24.66003 46.87102 7050 ft 281 kts 328°
2026-04-23 18:07 24.67713 46.86026 7040 ft 285 kts 328°
2026-04-23 18:08 24.68850 46.85312 7035 ft 284 kts 328°
2026-04-23 18:08 24.71157 46.83942 6938 ft 279 kts 329°
2026-04-23 18:08 24.72844 46.82910 6626 ft 282 kts 329°
2026-04-23 18:08 24.74549 46.81832 6277 ft 282 kts 329°
2026-04-23 18:09 24.76239 46.80753 5911 ft 278 kts 330°
2026-04-23 18:09 24.77880 46.79705 5557 ft 275 kts 331°
2026-04-23 18:09 24.79530 46.78655 5210 ft 272 kts 330°
2026-04-23 18:09 24.81163 46.77614 4874 ft 268 kts 332°
2026-04-23 18:10 24.82761 46.76598 4523 ft 264 kts 332°
2026-04-23 18:10 24.84333 46.75597 4177 ft 255 kts 332°
2026-04-23 18:10 24.85824 46.74647 3839 ft 237 kts 333°
2026-04-23 18:10 24.87179 46.73784 3573 ft 210 kts 333°
2026-04-23 18:11 24.88376 46.73023 3290 ft 188 kts 332°
2026-04-23 18:11 24.89102 46.72563 3123 ft 175 kts 331°
2026-04-23 18:11 24.90364 46.71760 2877 ft 154 kts 332°
2026-04-23 18:11 24.91299 46.71165 2658 ft 155 kts 332°
2026-04-23 18:12 24.92227 46.70569 2448 ft 154 kts 332°
2026-04-23 18:12 24.93142 46.69995 2252 ft 149 kts 332°
2026-04-23 18:12 24.94032 46.69436 2080 ft 147 kts 331°
2026-04-23 18:12 24.94623 46.69073 2020 ft 146 kts 332°
2026-04-23 18:13 24.95399 46.68578 2010 ft 109 kts 328°
2026-04-23 18:13 24.95921 46.68233 2009 ft 69 kts 330°
2026-04-23 18:13 24.96379 46.67944 2011 ft 43 kts 330°
2026-04-23 18:13 24.96566 46.67879 2012 ft 10 kts 56°
2026-04-23 18:14 24.96591 46.67924 2015 ft 10 kts 58°
2026-04-23 18:14 24.96625 46.67988 2013 ft 10 kts 60°
2026-04-23 18:14 24.96659 46.68052 2011 ft 10 kts 59°
2026-04-23 18:14 24.96650 46.68115 2011 ft 9 kts 141°
2026-04-23 18:15 24.96596 46.68152 2010 ft 9 kts 153°
2026-04-23 18:15 24.96543 46.68182 2010 ft 9 kts 153°
2026-04-23 18:15 24.96493 46.68212 2010 ft 9 kts 151°
2026-04-23 18:15 24.96446 46.68242 2010 ft 9 kts 149°
2026-04-23 18:16 24.96380 46.68284 2014 ft 14 kts 151°
2026-04-23 18:16 24.96280 46.68348 2012 ft 19 kts 149°
2026-04-23 18:16 24.96147 46.68429 2012 ft 24 kts 151°
2026-04-23 18:17 24.95809 46.68648 2012 ft 32 kts 149°
2026-04-23 18:17 24.95605 46.68777 2012 ft 35 kts 151°
2026-04-23 18:17 24.95383 46.68913 2016 ft 39 kts 150°
2026-04-23 18:17 24.95146 46.69062 2014 ft 31 kts 149°
2026-04-23 18:18 24.94974 46.69172 2012 ft 31 kts 150°
2026-04-23 18:18 24.94774 46.69300 2018 ft 35 kts 150°
2026-04-23 18:18 24.94561 46.69432 2012 ft 20 kts 151°
2026-04-23 18:18 24.94523 46.69529 2016 ft 17 kts 69°
2026-04-23 18:19 24.94564 46.69613 2015 ft 0 kts 59°
2026-04-23 18:19 24.94568 46.69620 2016 ft 2 kts 59°
2026-04-23 18:19 24.94587 46.69655 2015 ft 14 kts 60°
2026-04-23 18:20 24.94658 46.69791 2013 ft 23 kts 59°
2026-04-23 18:20 24.94736 46.69938 2015 ft 22 kts 61°
2026-04-23 18:20 24.94810 46.70080 2020 ft 22 kts 59°
2026-04-23 18:20 24.94885 46.70220 2024 ft 21 kts 61°
2026-04-23 18:21 24.94956 46.70358 2024 ft 20 kts 59°
2026-04-23 18:21 24.95025 46.70488 2021 ft 20 kts 60°
2026-04-23 18:21 24.95092 46.70617 2020 ft 19 kts 60°
2026-04-23 18:21 24.95158 46.70741 2013 ft 18 kts 59°
2026-04-23 18:22 24.95197 46.70854 2014 ft 15 kts 103°
2026-04-23 18:22 24.95116 46.70914 2014 ft 14 kts 148°
2026-04-23 18:22 24.95033 46.70967 2016 ft 13 kts 149°
2026-04-23 18:22 24.94954 46.71018 2015 ft 13 kts 150°
2026-04-23 18:23 24.94903 46.71050 2014 ft 13 kts 150°
2026-04-23 18:23 24.94738 46.71158 2015 ft 1 kts 149°
2026-04-23 18:24 24.94721 46.71168 2015 ft 1 kts 151°
2026-04-23 18:24 24.94714 46.71172 2015 ft 1 kts 151°
2026-04-23 18:24 24.94707 46.71176 2017 ft 1 kts 153°
2026-04-23 18:25 24.94682 46.71195 2018 ft 6 kts 121°
2026-04-23 18:25 24.94704 46.71256 2017 ft 12 kts 56°
2026-04-23 18:25 24.94725 46.71291 2016 ft 2 kts 60°
2026-04-23 18:25 24.94726 46.71293 2018 ft 0 kts 60°
2026-04-23 18:26 24.94726 46.71294 2017 ft 0 kts 59°